,,PA_Meas_PMT16A,,PR_Meas_QMR101_102,,RH_Meas_QMH101,,SR_Meas_QMS101,,TA_Meas_QMH101,,GenWind,,GenWind,
time,status,PA,status,PR,status,RH,status,SR,status,TA,status,DirAvg,status,SpdAvg,
2010-07-28, 00:00:04,VALID,919.042,VALID,0,VALID,95.8492,VALID,0,VALID,19.8783,VALID,48,VALID,0.00351562,
2010-07-28, 00:01:04,VALID,918.965,VALID,0,VALID,95.9254,VALID,0,VALID,19.8978,VALID,48,VALID,1.46406,
2010-07-28, 00:02:04,VALID,918.92,VALID,0,VALID,95.9712,VALID,0,VALID,19.8978,VALID,48,VALID,1.18242,
2010-07-28, 00:03:04,VALID,918.896,VALID,0,VALID,95.9407,VALID,0,VALID,19.8783,VALID,47,VALID,1.49063,
2010-07-28, 00:04:04,VALID,918.89,VALID,0,VALID,96.0017,VALID,0,VALID,19.8393,VALID,48,VALID,1.16055,
2010-07-28, 00:05:04,VALID,918.832,VALID,0,VALID,95.9941,VALID,0,VALID,19.8393,VALID,48,VALID,1.39844,
2010-07-28, 00:06:04,VALID,918.785,VALID,0,VALID,96.0627,VALID,0,VALID,19.8198,VALID,47,VALID,0.933984,
2010-07-28, 00:07:04,VALID,918.797,VALID,0,VALID,96.2228,VALID,0,VALID,19.8588,VALID,47,VALID,1.54805,
2010-07-28, 00:08:04,VALID,918.794,VALID,0,VALID,96.3142,VALID,0,VALID,19.8783,VALID,47,VALID,1.28945,
2010-07-28, 00:09:04,VALID,918.792,VALID,0,VALID,96.3447,VALID,0,VALID,19.8588,VALID,47,VALID,0.989062,
2010-07-28, 00:10:04,VALID,918.759,VALID,0,VALID,96.3981,VALID,0,VALID,19.8783,VALID,44,VALID,1.72109,
2010-07-28, 00:11:04,VALID,918.762,VALID,0,VALID,96.4438,VALID,0,VALID,19.8783,VALID,12,VALID,1.43164,
2010-07-28, 00:12:04,VALID,918.718,VALID,0,VALID,96.4591,VALID,0,VALID,19.8978,VALID,11,VALID,1.42266,
2010-07-28, 00:13:04,VALID,918.696,VALID,0,VALID,96.3905,VALID,0,VALID,19.8393,VALID,11,VALID,1.95898,
2010-07-28, 00:14:04,VALID,918.647,VALID,0,VALID,96.3829,VALID,0,VALID,19.8003,VALID,10,VALID,2.16758,
2010-07-28, 00:15:04,VALID,918.635,VALID,0,VALID,96.4591,VALID,0,VALID,19.7598,VALID,10,VALID,1.14063,
2010-07-28, 00:16:04,VALID,918.641,VALID,0,VALID,96.3981,VALID,0,VALID,19.7208,VALID,9,VALID,1.83438,
2010-07-28, 00:17:04,VALID,918.636,VALID,0,VALID,96.5048,VALID,0,VALID,19.7013,VALID,9,VALID,1.22578,
2010-07-28, 00:18:04,VALID,918.618,VALID,0,VALID,96.4362,VALID,0,VALID,19.6833,VALID,9,VALID,1.43047,
2010-07-28, 00:19:04,VALID,918.596,VALID,0,VALID,96.5353,VALID,0,VALID,19.6638,VALID,9,VALID,1.06914,
2010-07-28, 00:20:04,VALID,918.599,VALID,0,VALID,96.5582,VALID,0,VALID,19.6638,VALID,9,VALID,1.11602,
2010-07-28, 00:21:04,VALID,918.609,VALID,0,VALID,96.6115,VALID,0,VALID,19.6638,VALID,9,VALID,0.891016,
2010-07-28, 00:22:04,VALID,918.591,VALID,0,VALID,96.6573,VALID,0,VALID,19.7028,VALID,9,VALID,0.956641,
2010-07-28, 00:23:04,VALID,918.549,VALID,0,VALID,96.6573,VALID,0,VALID,19.6833,VALID,9,VALID,1.55469,
2010-07-28, 00:24:04,VALID,918.554,VALID,0,VALID,96.7259,VALID,0,VALID,19.7223,VALID,9,VALID,1.11484,
2010-07-28, 00:25:04,VALID,918.531,VALID,0,VALID,96.7107,VALID,0,VALID,19.7028,VALID,9,VALID,1.19219,
2010-07-28, 00:26:04,VALID,918.479,VALID,0,VALID,96.7564,VALID,0,VALID,19.7028,VALID,9,VALID,1.16484,
2010-07-28, 00:27:04,VALID,918.463,VALID,0,VALID,96.8174,VALID,0,VALID,19.7418,VALID,9,VALID,0.740234,
2010-07-28, 00:28:04,VALID,918.395,VALID,0,VALID,96.7869,VALID,0,VALID,19.7418,VALID,9,VALID,1.17734,
2010-07-28, 00:29:04,VALID,918.339,VALID,0,VALID,96.8021,VALID,0,VALID,19.7418,VALID,9,VALID,0.964844,
2010-07-28, 00:30:04,VALID,918.359,VALID,0,VALID,96.8326,VALID,0,VALID,19.7223,VALID,9,VALID,0.712891,
2010-07-28, 00:31:04,VALID,918.343,VALID,0,VALID,96.8403,VALID,0,VALID,19.7418,VALID,2,VALID,1.61523,
2010-07-28, 00:32:04,VALID,918.306,VALID,0,VALID,96.825,VALID,0,VALID,19.7223,VALID,2,VALID,1.27305,
2010-07-28, 00:33:04,VALID,918.312,VALID,0,VALID,96.8631,VALID,0,VALID,19.7403,VALID,2,VALID,1.3168,
2010-07-28, 00:34:04,VALID,918.267,VALID,0,VALID,96.8707,VALID,0,VALID,19.7613,VALID,2,VALID,1.56055,
2010-07-28, 00:35:04,VALID,918.226,VALID,0,VALID,96.9012,VALID,0,VALID,19.7598,VALID,2,VALID,1.84922,
2010-07-28, 00:36:04,VALID,918.217,VALID,0,VALID,96.9012,VALID,0,VALID,19.7808,VALID,3,VALID,1.71563,
2010-07-28, 00:37:04,VALID,918.22,VALID,0,VALID,96.9241,VALID,0,VALID,19.8003,VALID,17,VALID,1.48867,
2010-07-28, 00:38:04,VALID,918.21,VALID,0,VALID,96.9317,VALID,0,VALID,19.8003,VALID,17,VALID,1.63633,
2010-07-28, 00:39:04,VALID,918.187,VALID,0,VALID,96.9546,VALID,0,VALID,19.8393,VALID,17,VALID,1.91523,
2010-07-28, 00:40:04,VALID,918.152,VALID,0,VALID,96.9622,VALID,0,VALID,19.8588,VALID,17,VALID,1.59687,
2010-07-28, 00:41:04,VALID,918.104,VALID,0,VALID,96.947,VALID,0,VALID,19.8573,VALID,17,VALID,1.69102,
2010-07-28, 00:42:04,VALID,918.056,VALID,0,VALID,96.9698,VALID,0,VALID,19.8978,VALID,17,VALID,1.8082,
2010-07-28, 00:43:04,VALID,918.054,VALID,0,VALID,96.9241,VALID,0,VALID,19.8783,VALID,17,VALID,2.11094,
2010-07-28, 00:44:04,VALID,918.064,VALID,0,VALID,96.947,VALID,0,VALID,19.8783,VALID,16,VALID,1.34687,
2010-07-28, 00:45:04,VALID,918.042,VALID,0,VALID,96.9241,VALID,0,VALID,19.8588,VALID,12,VALID,1.71133,
2010-07-28, 00:46:04,VALID,917.979,VALID,0,VALID,96.9622,VALID,0,VALID,19.8393,VALID,25,VALID,2.14219,
2010-07-28, 00:47:04,VALID,917.961,VALID,0,VALID,96.9394,VALID,0,VALID,19.8573,VALID,13,VALID,1.15117,
2010-07-28, 00:48:04,VALID,917.976,VALID,0,VALID,96.9927,VALID,0,VALID,19.8768,VALID,13,VALID,1.56484,
2010-07-28, 00:49:04,VALID,917.957,VALID,0,VALID,97.0156,VALID,0,VALID,19.8768,VALID,13,VALID,1.78984,
2010-07-28, 00:50:04,VALID,917.968,VALID,0,VALID,96.9546,VALID,0,VALID,19.8573,VALID,9,VALID,2.13906,
2010-07-28, 00:51:04,VALID,917.972,VALID,0,VALID,96.9927,VALID,0,VALID,19.8378,VALID,26,VALID,2.39023,
2010-07-28, 00:52:04,VALID,917.934,VALID,0,VALID,97.0003,VALID,0,VALID,19.8768,VALID,33,VALID,2.30781,
2010-07-28, 00:53:04,VALID,917.954,VALID,0,VALID,96.9927,VALID,0.107441,VALID,19.8768,VALID,23,VALID,2.6207,
2010-07-28, 00:54:04,VALID,917.945,VALID,0,VALID,97.0003,VALID,0,VALID,19.8558,VALID,31,VALID,2.66602,
2010-07-28, 00:55:04,VALID,917.988,VALID,0,VALID,97.008,VALID,0,VALID,19.8378,VALID,28,VALID,2.95859,
2010-07-28, 00:56:04,VALID,917.993,VALID,0,VALID,97.0308,VALID,0,VALID,19.8768,VALID,23,VALID,1.92539,
2010-07-28, 00:57:04,VALID,918.035,VALID,0,VALID,97.0156,VALID,0.107441,VALID,19.8573,VALID,31,VALID,1.7832,
2010-07-28, 00:58:04,VALID,918.003,VALID,0,VALID,96.9851,VALID,0.107441,VALID,19.8573,VALID,28,VALID,2.03711,
2010-07-28, 00:59:04,VALID,917.957,VALID,0,VALID,96.9622,VALID,0,VALID,19.8378,VALID,25,VALID,1.85664,
2010-07-28, 01:00:04,VALID,917.936,VALID,0,VALID,96.9698,VALID,0,VALID,19.7988,VALID,48,VALID,2.35469,
2010-07-28, 01:01:04,VALID,917.977,VALID,0,VALID,97.0232,VALID,0.107441,VALID,19.7988,VALID,35,VALID,2.55273,
2010-07-28, 01:02:04,VALID,917.966,VALID,0,VALID,96.9622,VALID,0.107441,VALID,19.7988,VALID,27,VALID,2.82969,
2010-07-28, 01:03:04,VALID,917.962,VALID,0,VALID,97.0461,VALID,0,VALID,19.7988,VALID,17,VALID,2.21367,
2010-07-28, 01:04:04,VALID,917.964,VALID,0,VALID,97.0156,VALID,0.107441,VALID,19.7403,VALID,27,VALID,2.68164,
2010-07-28, 01:05:04,VALID,917.961,VALID,0,VALID,97.0461,VALID,0,VALID,19.7793,VALID,9,VALID,2.11016,
2010-07-28, 01:06:04,VALID,918,VALID,0,VALID,96.9622,VALID,0,VALID,19.7208,VALID,354,VALID,2.32305,
2010-07-28, 01:07:04,VALID,918.011,VALID,0,VALID,97.0918,VALID,0,VALID,19.7208,VALID,22,VALID,2.10078,
2010-07-28, 01:08:04,VALID,917.97,VALID,0,VALID,97.1071,VALID,0,VALID,19.7208,VALID,33,VALID,2.4957,
2010-07-28, 01:09:04,VALID,918,VALID,0,VALID,97.0918,VALID,0.107441,VALID,19.7403,VALID,24,VALID,2.1957,
2010-07-28, 01:10:04,VALID,917.977,VALID,0,VALID,97.1071,VALID,0,VALID,19.7808,VALID,23,VALID,2.34609,
2010-07-28, 01:11:04,VALID,918.031,VALID,0,VALID,97.1071,VALID,0.107441,VALID,19.7208,VALID,13,VALID,1.50039,
2010-07-28, 01:12:04,VALID,918.097,VALID,0,VALID,97.1223,VALID,0.107441,VALID,19.7208,VALID,12,VALID,0.596484,
2010-07-28, 01:13:04,VALID,918.109,VALID,0,VALID,97.1452,VALID,0,VALID,19.7793,VALID,13,VALID,0.426562,
2010-07-28, 01:14:04,VALID,918.119,VALID,0.2,VALID,97.0994,VALID,0,VALID,19.7193,VALID,12,VALID,0.566797,
2010-07-28, 01:15:04,VALID,918.138,VALID,0,VALID,97.1071,VALID,0,VALID,19.7208,VALID,12,VALID,0.112891,
2010-07-28, 01:16:04,VALID,918.142,VALID,0,VALID,97.1071,VALID,0.107441,VALID,19.7193,VALID,13,VALID,0.169922,
2010-07-28, 01:17:04,VALID,918.134,VALID,0.2,VALID,97.1071,VALID,0,VALID,19.7223,VALID,13,VALID,0.324609,
2010-07-28, 01:18:04,VALID,918.133,VALID,0,VALID,97.1299,VALID,0,VALID,19.7223,VALID,13,VALID,0.39375,
2010-07-28, 01:19:04,VALID,918.137,VALID,0,VALID,97.1299,VALID,0,VALID,19.6623,VALID,12,VALID,0.951563,
2010-07-28, 01:20:04,VALID,918.134,VALID,0,VALID,97.1452,VALID,0,VALID,19.6623,VALID,12,VALID,0.206641,
2010-07-28, 01:21:04,VALID,918.17,VALID,0,VALID,97.1604,VALID,0,VALID,19.6833,VALID,13,VALID,0.422656,
2010-07-28, 01:22:04,VALID,918.138,VALID,0.2,VALID,97.1223,VALID,0,VALID,19.6623,VALID,248,VALID,0.875391,
2010-07-28, 01:23:04,VALID,918.112,VALID,0,VALID,97.1528,VALID,0,VALID,19.6623,VALID,248,VALID,0.367969,
2010-07-28, 01:24:04,VALID,918.147,VALID,0,VALID,97.1757,VALID,0,VALID,19.7613,VALID,248,VALID,0.472266,
2010-07-28, 01:25:04,VALID,918.143,VALID,0,VALID,97.1452,VALID,0,VALID,19.6638,VALID,245,VALID,1.95469,
2010-07-28, 01:26:04,VALID,918.149,VALID,0.2,VALID,97.1452,VALID,0,VALID,19.6233,VALID,246,VALID,1.48867,
2010-07-28, 01:27:04,VALID,918.166,VALID,0,VALID,97.1833,VALID,0,VALID,19.6638,VALID,246,VALID,0.220313,
2010-07-28, 01:28:04,VALID,918.207,VALID,0,VALID,97.1909,VALID,0,VALID,19.7028,VALID,245,VALID,0.249219,
2010-07-28, 01:29:04,VALID,918.174,VALID,0.2,VALID,97.1833,VALID,0,VALID,19.6833,VALID,246,VALID,0.548437,
2010-07-28, 01:30:04,VALID,918.119,VALID,0,VALID,97.1909,VALID,0,VALID,19.6833,VALID,245,VALID,1.32852,
2010-07-28, 01:31:04,VALID,918.198,VALID,0,VALID,97.1909,VALID,0,VALID,19.6833,VALID,245,VALID,0.928906,
2010-07-28, 01:32:04,VALID,918.17,VALID,0,VALID,97.1833,VALID,0,VALID,19.7013,VALID,245,VALID,0.551172,
2010-07-28, 01:33:04,VALID,918.118,VALID,0,VALID,97.2062,VALID,0,VALID,19.7418,VALID,245,VALID,0.81875,
2010-07-28, 01:34:04,VALID,918.108,VALID,0.2,VALID,97.1986,VALID,0,VALID,19.7028,VALID,13,VALID,1.23867,
2010-07-28, 01:35:04,VALID,918.105,VALID,0,VALID,97.1986,VALID,0,VALID,19.7013,VALID,13,VALID,0.720312,
2010-07-28, 01:36:04,VALID,918.058,VALID,0,VALID,97.1909,VALID,0,VALID,19.6638,VALID,42,VALID,1.6293,
2010-07-28, 01:37:04,VALID,918.054,VALID,0,VALID,97.1833,VALID,0,VALID,19.6443,VALID,76,VALID,0.548437,
2010-07-28, 01:38:04,VALID,918.141,VALID,0,VALID,97.1909,VALID,0,VALID,19.6248,VALID,342,VALID,0.714063,
2010-07-28, 01:39:04,VALID,918.114,VALID,0,VALID,97.1909,VALID,0,VALID,19.6053,VALID,18,VALID,1.13555,
2010-07-28, 01:40:04,VALID,918.111,VALID,0,VALID,97.1909,VALID,0,VALID,19.5663,VALID,32,VALID,2.66289,
2010-07-28, 01:41:04,VALID,918.154,VALID,0,VALID,97.1604,VALID,0,VALID,19.5078,VALID,11,VALID,2.54414,
2010-07-28, 01:42:04,VALID,918.247,VALID,0,VALID,97.1604,VALID,0,VALID,19.4688,VALID,237,VALID,1.61563,
2010-07-28, 01:43:04,VALID,918.195,VALID,0.2,VALID,97.1604,VALID,0,VALID,19.4493,VALID,91,VALID,1.22031,
2010-07-28, 01:44:04,VALID,918.189,VALID,0,VALID,97.1604,VALID,0,VALID,19.4688,VALID,57,VALID,2.30391,
2010-07-28, 01:45:04,VALID,918.225,VALID,0,VALID,97.1757,VALID,0,VALID,19.4298,VALID,224,VALID,1.00859,
2010-07-28, 01:46:04,VALID,918.248,VALID,0,VALID,97.1833,VALID,0,VALID,19.4103,VALID,126,VALID,1.02188,
2010-07-28, 01:47:04,VALID,918.365,VALID,0,VALID,97.1833,VALID,0,VALID,19.4103,VALID,135,VALID,1.23438,
2010-07-28, 01:48:04,VALID,918.267,VALID,0,VALID,96.9317,VALID,0,VALID,19.2543,VALID,15,VALID,2.82383,
2010-07-28, 01:49:04,VALID,918.364,VALID,0,VALID,96.947,VALID,0,VALID,19.1958,VALID,101,VALID,1.55,
2010-07-28, 01:50:04,VALID,918.178,VALID,0,VALID,96.7488,VALID,0,VALID,19.0593,VALID,22,VALID,4.04727,
2010-07-28, 01:51:04,VALID,918.393,VALID,0,VALID,96.8174,VALID,0,VALID,18.9994,VALID,205,VALID,1.02461,
2010-07-28, 01:52:04,VALID,918.449,VALID,0,VALID,96.8479,VALID,0,VALID,18.9814,VALID,359,VALID,1.81758,
2010-07-28, 01:53:04,VALID,918.405,VALID,0,VALID,96.7335,VALID,0,VALID,18.9034,VALID,43,VALID,2.58203,
2010-07-28, 01:54:04,VALID,918.483,VALID,0,VALID,96.703,VALID,0,VALID,18.8449,VALID,46,VALID,0.768359,
2010-07-28, 01:55:04,VALID,918.394,VALID,0,VALID,96.6192,VALID,0,VALID,18.7474,VALID,295,VALID,2.10039,
2010-07-28, 01:56:04,VALID,918.366,VALID,0,VALID,96.5429,VALID,0,VALID,18.7084,VALID,328,VALID,2.16094,
2010-07-28, 01:57:04,VALID,918.37,VALID,0,VALID,96.4743,VALID,0,VALID,18.668,VALID,33,VALID,2.98984,
2010-07-28, 01:58:04,VALID,918.401,VALID,0,VALID,96.3829,VALID,0,VALID,18.6304,VALID,128,VALID,1.43672,
2010-07-28, 01:59:04,VALID,918.503,VALID,0,VALID,96.3219,VALID,0,VALID,18.6109,VALID,62,VALID,1.10703,
2010-07-28, 02:00:04,VALID,918.471,VALID,0,VALID,96.2761,VALID,0,VALID,18.6095,VALID,339,VALID,2.38086,
2010-07-28, 02:01:04,VALID,918.609,VALID,0,VALID,96.1999,VALID,0.107441,VALID,18.5511,VALID,22,VALID,2.23906,
2010-07-28, 02:02:04,VALID,918.566,VALID,0.2,VALID,96.2075,VALID,0,VALID,18.5316,VALID,33,VALID,2.45313,
2010-07-28, 02:03:04,VALID,918.489,VALID,0,VALID,96.1694,VALID,0.107441,VALID,18.5121,VALID,48,VALID,3.33437,
2010-07-28, 02:04:04,VALID,918.535,VALID,0,VALID,96.1694,VALID,0,VALID,18.5135,VALID,25,VALID,2.69336,
2010-07-28, 02:05:04,VALID,918.558,VALID,0,VALID,96.0322,VALID,0,VALID,18.4536,VALID,34,VALID,2.26602,
2010-07-28, 02:06:04,VALID,918.572,VALID,0,VALID,95.9712,VALID,0,VALID,18.494,VALID,325,VALID,0.253906,
2010-07-28, 02:07:04,VALID,918.58,VALID,0.2,VALID,95.9026,VALID,0,VALID,18.4536,VALID,42,VALID,1.54766,
2010-07-28, 02:08:04,VALID,918.499,VALID,0,VALID,95.8873,VALID,0,VALID,18.4731,VALID,32,VALID,2.88359,
2010-07-28, 02:09:04,VALID,918.511,VALID,0,VALID,95.7882,VALID,0,VALID,18.4146,VALID,36,VALID,2.38945,
2010-07-28, 02:10:04,VALID,918.544,VALID,0,VALID,95.8721,VALID,0,VALID,18.4146,VALID,25,VALID,0.994531,
2010-07-28, 02:11:04,VALID,918.583,VALID,0,VALID,95.8416,VALID,0,VALID,18.416,VALID,23,VALID,2.09883,
2010-07-28, 02:12:04,VALID,918.567,VALID,0.2,VALID,95.9712,VALID,0,VALID,18.416,VALID,45,VALID,0.93125,
2010-07-28, 02:13:04,VALID,918.539,VALID,0,VALID,95.9102,VALID,0.107441,VALID,18.3561,VALID,275,VALID,0.978906,
2010-07-28, 02:14:04,VALID,918.509,VALID,0.2,VALID,95.9788,VALID,0,VALID,18.377,VALID,23,VALID,1.66758,
2010-07-28, 02:15:04,VALID,918.494,VALID,0,VALID,96.055,VALID,0,VALID,18.3561,VALID,16,VALID,1.79961,
2010-07-28, 02:16:04,VALID,918.502,VALID,0.2,VALID,96.0855,VALID,0.107441,VALID,18.3366,VALID,20,VALID,1.90156,
2010-07-28, 02:17:04,VALID,918.507,VALID,0,VALID,96.1084,VALID,0.107441,VALID,18.338,VALID,39,VALID,2.12461,
2010-07-28, 02:18:04,VALID,918.488,VALID,0.2,VALID,95.9788,VALID,0,VALID,18.2782,VALID,24,VALID,2.05469,
2010-07-28, 02:19:04,VALID,918.466,VALID,0,VALID,96.0855,VALID,0,VALID,18.2782,VALID,34,VALID,2.34961,
2010-07-28, 02:20:04,VALID,918.515,VALID,0.2,VALID,96.177,VALID,0,VALID,18.2782,VALID,17,VALID,2.68867,
2010-07-28, 02:21:04,VALID,918.398,VALID,0,VALID,96.1008,VALID,0,VALID,18.2392,VALID,21,VALID,2.76133,
2010-07-28, 02:22:04,VALID,918.535,VALID,0,VALID,96.2151,VALID,0,VALID,18.2587,VALID,24,VALID,2.02227,
2010-07-28, 02:23:04,VALID,918.53,VALID,0.2,VALID,96.1313,VALID,0,VALID,18.2601,VALID,28,VALID,2.71133,
2010-07-28, 02:24:04,VALID,918.559,VALID,0,VALID,96.2914,VALID,0,VALID,18.2977,VALID,30,VALID,1.85625,
2010-07-28, 02:25:04,VALID,918.572,VALID,0,VALID,96.3447,VALID,0,VALID,18.338,VALID,27,VALID,1.07969,
2010-07-28, 02:26:04,VALID,918.542,VALID,0,VALID,96.3066,VALID,0,VALID,18.2977,VALID,38,VALID,1.64766,
2010-07-28, 02:27:04,VALID,918.573,VALID,0.2,VALID,96.3981,VALID,0,VALID,18.3185,VALID,22,VALID,1.4582,
2010-07-28, 02:28:04,VALID,918.598,VALID,0,VALID,96.4515,VALID,0,VALID,18.3172,VALID,1,VALID,0.346875,
2010-07-28, 02:29:04,VALID,918.604,VALID,0,VALID,96.4515,VALID,0,VALID,18.2782,VALID,20,VALID,1.05352,
2010-07-28, 02:30:04,VALID,918.569,VALID,0.2,VALID,96.5429,VALID,0,VALID,18.299,VALID,28,VALID,1.15977,
2010-07-28, 02:31:04,VALID,918.607,VALID,0,VALID,96.5353,VALID,0,VALID,18.299,VALID,20,VALID,1.08555,
2010-07-28, 02:32:04,VALID,918.589,VALID,0,VALID,96.5124,VALID,0,VALID,18.2601,VALID,20,VALID,1.04453,
2010-07-28, 02:33:04,VALID,918.655,VALID,0,VALID,96.5429,VALID,0,VALID,18.2406,VALID,14,VALID,1.65703,
2010-07-28, 02:34:04,VALID,918.661,VALID,0.2,VALID,96.6497,VALID,0,VALID,18.2601,VALID,40,VALID,1.05859,
2010-07-28, 02:35:04,VALID,918.633,VALID,0,VALID,96.7411,VALID,0,VALID,18.299,VALID,43,VALID,0.867188,
2010-07-28, 02:36:04,VALID,918.686,VALID,0.2,VALID,96.8174,VALID,0,VALID,18.3172,VALID,43,VALID,1.10312,
2010-07-28, 02:37:04,VALID,918.718,VALID,0,VALID,96.8098,VALID,0,VALID,18.3185,VALID,43,VALID,1.14453,
2010-07-28, 02:38:04,VALID,918.75,VALID,0,VALID,96.8326,VALID,0,VALID,18.338,VALID,43,VALID,1.06914,
2010-07-28, 02:39:04,VALID,918.773,VALID,0.2,VALID,96.8631,VALID,0,VALID,18.338,VALID,43,VALID,0.961719,
2010-07-28, 02:40:04,VALID,918.79,VALID,0,VALID,96.8936,VALID,0,VALID,18.3575,VALID,43,VALID,0.0675781,
2010-07-28, 02:41:04,VALID,918.875,VALID,0.2,VALID,96.9317,VALID,0,VALID,18.3575,VALID,43,VALID,0.480078,
2010-07-28, 02:42:04,VALID,918.845,VALID,0.2,VALID,96.8936,VALID,0,VALID,18.338,VALID,43,VALID,0.351953,
2010-07-28, 02:43:04,VALID,918.777,VALID,0,VALID,96.8326,VALID,0,VALID,18.2796,VALID,43,VALID,0.482031,
2010-07-28, 02:44:04,VALID,918.751,VALID,0.2,VALID,96.9089,VALID,0,VALID,18.2601,VALID,27,VALID,1.18945,
2010-07-28, 02:45:04,VALID,918.795,VALID,0,VALID,96.9317,VALID,0.107441,VALID,18.2601,VALID,9,VALID,0.708594,
2010-07-28, 02:46:04,VALID,918.806,VALID,0.2,VALID,97.0003,VALID,0,VALID,18.2796,VALID,9,VALID,0.922656,
2010-07-28, 02:47:04,VALID,918.799,VALID,0,VALID,96.9622,VALID,0,VALID,18.299,VALID,9,VALID,0.644531,
2010-07-28, 02:48:04,VALID,918.799,VALID,0,VALID,96.9546,VALID,0,VALID,18.2587,VALID,9,VALID,0.137109,
2010-07-28, 02:49:04,VALID,918.822,VALID,0.2,VALID,96.9622,VALID,0,VALID,18.2392,VALID,9,VALID,0.517187,
2010-07-28, 02:50:04,VALID,918.832,VALID,0,VALID,96.9927,VALID,0,VALID,18.2601,VALID,9,VALID,0.321875,
2010-07-28, 02:51:04,VALID,918.825,VALID,0.2,VALID,97.008,VALID,0,VALID,18.2406,VALID,9,VALID,0.357812,
2010-07-28, 02:52:04,VALID,918.852,VALID,0,VALID,97.0308,VALID,0,VALID,18.2601,VALID,9,VALID,0.39375,
2010-07-28, 02:53:04,VALID,918.833,VALID,0.2,VALID,97.0613,VALID,0,VALID,18.2601,VALID,9,VALID,0.242578,
2010-07-28, 02:54:04,VALID,918.849,VALID,0,VALID,97.1071,VALID,0,VALID,18.2977,VALID,9,VALID,0.701563,
2010-07-28, 02:55:04,VALID,918.81,VALID,0,VALID,97.0537,VALID,0,VALID,18.299,VALID,8,VALID,0.459766,
2010-07-28, 02:56:04,VALID,918.797,VALID,0.2,VALID,97.1376,VALID,0.107441,VALID,18.3185,VALID,8,VALID,1.00117,
2010-07-28, 02:57:04,VALID,918.782,VALID,0,VALID,97.0461,VALID,0,VALID,18.3185,VALID,8,VALID,0.963281,
2010-07-28, 02:58:04,VALID,918.746,VALID,0,VALID,97.0613,VALID,0,VALID,18.299,VALID,8,VALID,0.739453,
2010-07-28, 02:59:04,VALID,918.703,VALID,0,VALID,97.0842,VALID,0,VALID,18.3185,VALID,8,VALID,1.03633,
2010-07-28, 03:00:04,VALID,918.727,VALID,0,VALID,97.0994,VALID,0,VALID,18.338,VALID,8,VALID,1.26406,
2010-07-28, 03:01:04,VALID,918.746,VALID,0.2,VALID,97.0232,VALID,0,VALID,18.2796,VALID,13,VALID,1.03477,
2010-07-28, 03:02:04,VALID,918.779,VALID,0,VALID,97.0918,VALID,0,VALID,18.3185,VALID,36,VALID,0.863672,
2010-07-28, 03:03:04,VALID,918.827,VALID,0,VALID,97.0308,VALID,0,VALID,18.2977,VALID,36,VALID,0,
2010-07-28, 03:04:04,VALID,918.826,VALID,0.2,VALID,97.0308,VALID,0,VALID,18.299,VALID,36,VALID,0.569531,
2010-07-28, 03:05:04,VALID,918.855,VALID,0,VALID,97.008,VALID,0,VALID,18.3185,VALID,36,VALID,0.608984,
2010-07-28, 03:06:04,VALID,918.84,VALID,0.2,VALID,97.008,VALID,0.107441,VALID,18.3185,VALID,36,VALID,0.317578,
2010-07-28, 03:07:04,VALID,918.913,VALID,0,VALID,97.0461,VALID,0,VALID,18.3172,VALID,36,VALID,0.226172,
2010-07-28, 03:08:04,VALID,918.933,VALID,0.2,VALID,97.0232,VALID,0,VALID,18.338,VALID,327,VALID,1.11328,
2010-07-28, 03:09:04,VALID,918.915,VALID,0,VALID,97.0232,VALID,0.107441,VALID,18.338,VALID,249,VALID,0.300781,
2010-07-28, 03:10:04,VALID,918.887,VALID,0.2,VALID,97.0308,VALID,0,VALID,18.3185,VALID,249,VALID,0.154687,
2010-07-28, 03:11:04,VALID,918.859,VALID,0,VALID,97.0766,VALID,0,VALID,18.338,VALID,249,VALID,0.370703,
2010-07-28, 03:12:04,VALID,918.925,VALID,0.2,VALID,97.069,VALID,0,VALID,18.3172,VALID,249,VALID,1.24102,
2010-07-28, 03:13:04,VALID,918.954,VALID,0,VALID,97.0766,VALID,0,VALID,18.3575,VALID,250,VALID,0.833984,
2010-07-28, 03:14:04,VALID,918.922,VALID,0,VALID,97.0461,VALID,0,VALID,18.338,VALID,49,VALID,1.03672,
2010-07-28, 03:15:04,VALID,918.947,VALID,0,VALID,97.0385,VALID,0,VALID,18.3575,VALID,23,VALID,1.11445,
2010-07-28, 03:16:04,VALID,918.929,VALID,0.2,VALID,97.1299,VALID,0,VALID,18.377,VALID,19,VALID,0.405469,
2010-07-28, 03:17:04,VALID,918.96,VALID,0,VALID,97.0842,VALID,0,VALID,18.377,VALID,19,VALID,0.755859,
2010-07-28, 03:18:04,VALID,918.941,VALID,0.2,VALID,97.0537,VALID,0,VALID,18.3575,VALID,19,VALID,0.474609,
2010-07-28, 03:19:04,VALID,918.903,VALID,0.2,VALID,97.0308,VALID,0,VALID,18.3185,VALID,282,VALID,0.54375,
2010-07-28, 03:20:04,VALID,918.917,VALID,0,VALID,97.1299,VALID,0,VALID,18.3575,VALID,282,VALID,0.492188,
2010-07-28, 03:21:04,VALID,918.859,VALID,0.2,VALID,97.0842,VALID,0,VALID,18.377,VALID,61,VALID,0.773438,
2010-07-28, 03:22:04,VALID,918.846,VALID,0,VALID,97.0842,VALID,0,VALID,18.3575,VALID,6,VALID,1.50664,
2010-07-28, 03:23:04,VALID,918.86,VALID,0.2,VALID,97.1299,VALID,0,VALID,18.3575,VALID,26,VALID,1.40078,
2010-07-28, 03:24:04,VALID,918.875,VALID,0,VALID,97.1909,VALID,0,VALID,18.3561,VALID,16,VALID,0.814844,
2010-07-28, 03:25:04,VALID,918.85,VALID,0,VALID,97.1833,VALID,0.107441,VALID,18.3951,VALID,3,VALID,0.700781,
2010-07-28, 03:26:04,VALID,918.873,VALID,0,VALID,97.1528,VALID,0,VALID,18.416,VALID,3,VALID,0.987109,
2010-07-28, 03:27:04,VALID,918.846,VALID,0,VALID,97.1604,VALID,0,VALID,18.3756,VALID,3,VALID,0.455469,
2010-07-28, 03:28:04,VALID,918.791,VALID,0,VALID,97.1681,VALID,0,VALID,18.3965,VALID,16,VALID,1.39883,
2010-07-28, 03:29:04,VALID,918.807,VALID,0,VALID,97.2062,VALID,0,VALID,18.416,VALID,18,VALID,0.527344,
2010-07-28, 03:30:04,VALID,918.828,VALID,0,VALID,97.0994,VALID,0,VALID,18.338,VALID,51,VALID,1.35898,
2010-07-28, 03:31:04,VALID,918.849,VALID,0,VALID,97.1681,VALID,0,VALID,18.3575,VALID,44,VALID,0.688281,
2010-07-28, 03:32:04,VALID,918.81,VALID,0,VALID,97.1452,VALID,0,VALID,18.3185,VALID,44,VALID,0.641406,
2010-07-28, 03:33:04,VALID,918.803,VALID,0,VALID,97.1604,VALID,0,VALID,18.3185,VALID,44,VALID,1.6168,
2010-07-28, 03:34:04,VALID,918.839,VALID,0,VALID,97.2214,VALID,0,VALID,18.338,VALID,36,VALID,1.0125,
2010-07-28, 03:35:04,VALID,918.881,VALID,0,VALID,97.1528,VALID,0,VALID,18.3185,VALID,29,VALID,1.51719,
2010-07-28, 03:36:04,VALID,918.905,VALID,0,VALID,97.1986,VALID,0,VALID,18.3185,VALID,8,VALID,1.0332,
2010-07-28, 03:37:04,VALID,918.84,VALID,0.2,VALID,97.1757,VALID,0,VALID,18.3185,VALID,44,VALID,1.84219,
2010-07-28, 03:38:04,VALID,918.894,VALID,0,VALID,97.2062,VALID,0,VALID,18.3185,VALID,45,VALID,0.953516,
2010-07-28, 03:39:04,VALID,918.906,VALID,0,VALID,97.1986,VALID,0,VALID,18.3185,VALID,38,VALID,1.23438,
2010-07-28, 03:40:04,VALID,918.919,VALID,0,VALID,97.2214,VALID,0,VALID,18.2782,VALID,34,VALID,1.42266,
2010-07-28, 03:41:04,VALID,918.857,VALID,0,VALID,97.1681,VALID,0,VALID,18.2601,VALID,26,VALID,1.60312,
2010-07-28, 03:42:04,VALID,918.889,VALID,0,VALID,97.2138,VALID,0,VALID,18.2392,VALID,26,VALID,1.49023,
2010-07-28, 03:43:04,VALID,918.822,VALID,0,VALID,97.2672,VALID,0,VALID,18.2782,VALID,8,VALID,1.62695,
2010-07-28, 03:44:04,VALID,918.81,VALID,0,VALID,97.1299,VALID,0,VALID,18.2601,VALID,40,VALID,1.2543,
2010-07-28, 03:45:04,VALID,918.793,VALID,0,VALID,97.1604,VALID,0,VALID,18.2211,VALID,40,VALID,1.11328,
2010-07-28, 03:46:04,VALID,918.795,VALID,0,VALID,97.1299,VALID,0,VALID,18.1612,VALID,355,VALID,1.1082,